Home > Time Zones > World Clock > Weather > U.S.A. > Bend > Past weeks

Flag for U.S.A. Weather past 2 weeks in Bend, Oregon, U.S.A.

Now
72 °F

Clear.


Feels Like: 75 °F
Forecast: 64 / 95 °F
Wind: No wind

Location: Roberts Field Airport

Current Time: Jul 2, 2015 at 11:47:42 PM

Latest Report: Jul 2, 2015 at 10:56 PM


Visibility: 10 mi

Pressure: 29.92 "Hg

Humidity: 21%

Dew point: 30 °F

Location of BendLocation

Historic Weather in Bend — Graph

°F

Bend temperature yesterday

Maximum temperature yesterday: 99 °F (at 3:56 PM)
Minimum temperature yesterday: 56 °F (at 3:56 AM)
Average temperature yesterday: 80 °F

Past Weeks' High & Low Weather Summary

 TemperatureHumidityPressure
High100 °F (Jun 26, 3:56 PM)82% (Jun 23, 4:56 AM)30.12 "Hg (Jun 23, 4:56 AM)
Low41 °F (Jun 23, 4:56 AM)12% (Jun 20, 1:56 PM)29.82 "Hg (Jun 21, 2:56 AM)
Average73 °F39%29.96 "Hg
* Reported Jun 17 10:56 PM — Jul 2 10:56 PM, Bend, Weather by CustomWeather, © 2015

Note: Actual official high and low records may vary slightly from our data, if they occured in-between our weather recording intervals... More about our weather records

Advertising

Bend weather history for previous 24 hours

 ConditionsComfort  
Time TempWeatherWind HumidityBarometerVisibility
10:56 PM
Thu, Jul 2
72 °FClear.No wind21%29.92 "Hg10 mi
9:56 PM81 °FClear.7 mph17%29.90 "Hg10 mi
8:56 PM87 °FSunny.14 mph16%29.88 "Hg10 mi
7:56 PM93 °FSunny.15 mph18%29.86 "Hg10 mi
6:56 PM96 °FSunny.14 mph17%29.85 "Hg10 mi
5:56 PM98 °FSunny.14 mph17%29.85 "Hg10 mi
4:56 PM100 °FSunny.14 mph16%29.86 "Hg10 mi
3:56 PM98 °FSunny.No wind17%29.88 "Hg10 mi
2:56 PM99 °FSunny.9 mph18%29.89 "Hg10 mi
1:56 PM98 °FSunny.12 mph18%29.91 "Hg10 mi
12:56 PM93 °FSunny.5 mph20%29.93 "Hg10 mi
11:56 AM91 °FSunny.7 mph22%29.94 "Hg10 mi
10:56 AM87 °FSunny.7 mph26%29.94 "Hg10 mi
9:56 AM83 °FSunny.3 mph30%29.96 "Hg10 mi
8:56 AM79 °FSunny.No wind34%29.96 "Hg10 mi
7:56 AM74 °FSunny.No wind41%29.97 "Hg10 mi
6:56 AM67 °FSunny.No wind51%29.97 "Hg10 mi
5:56 AM61 °FClear.No wind60%29.96 "Hg10 mi
4:56 AM61 °FClear.No wind60%29.95 "Hg10 mi
3:56 AM63 °FClear.6 mph56%29.95 "Hg10 mi
2:56 AM64 °FClear.3 mph54%29.94 "Hg10 mi
1:56 AM65 °FClear.3 mph45%29.94 "Hg10 mi
12:56 AM75 °FClear.6 mph30%29.93 "Hg10 mi
11:56 PM
Wed, Jul 1
78 °FClear.7 mph27%29.92 "Hg10 mi
Weather by CustomWeather, © 2015

See weather overviewHow to use our weather pages